This is the latest recevied weather packets stored in our database for station/object EA7HQL-10. If no packets are shown the sender has not sent any weather packets the latest 1 day(s).
| Time | Temp. | Humidity | Pressure | Rain* | Wind** | Luminosity | Snow |
|---|---|---|---|---|---|---|---|
| 1778043580 | 17.78° C | 50% | 1007.9 hPa | 0 mm | 1.79 m/s, 238° | - | - |
| 1778043320 | 17.78° C | 51% | 1008 hPa | 0 mm | 0 m/s | - | - |
| 1778043020 | 17.78° C | 51% | 1008 hPa | 0 mm | 1.79 m/s, 359° | - | - |
| 1778042750 | 17.78° C | 50% | 1007.7 hPa | 0 mm | 1.34 m/s, 324° | - | - |
| 1778042465 | 17.78° C | 50% | 1008 hPa | 0 mm | 2.24 m/s, 187° | - | - |
| 1778042195 | 17.78° C | 50% | 1007.7 hPa | 0 mm | 2.68 m/s, 270° | - | - |
| 1778041950 | 17.78° C | 51% | 1007.9 hPa | 0 mm | 1.79 m/s, 251° | - | - |
| 1778041665 | 17.78° C | 52% | 1007.8 hPa | 0 mm | 2.68 m/s, 203° | - | - |
| 1778041380 | 17.78° C | 53% | 1007.7 hPa | 0 mm | 1.79 m/s, 259° | - | - |
| 1778041085 | 17.78° C | 52% | 1007.6 hPa | 0 mm | 4.02 m/s, 345° | - | - |
| 1778040800 | 17.78° C | 52% | 1007.9 hPa | 0 mm | 3.13 m/s, 297° | - | - |
| 1778040530 | 17.78° C | 51% | 1007.9 hPa | 0 mm | 2.68 m/s, 243° | - | - |
| 1778040255 | 17.78° C | 52% | 1008.2 hPa | 0 mm | 2.24 m/s, 308° | - | - |
| 1778039955 | 18.33° C | 51% | 1008.1 hPa | 0 mm | 3.58 m/s, 293° | - | - |
| 1778039715 | 18.33° C | 50% | 1008.1 hPa | 0 mm | 2.24 m/s, 24° | - | - |
| 1778039455 | 18.33° C | 50% | 1008 hPa | 0 mm | 1.79 m/s, 224° | - | - |
| 1778039200 | 18.33° C | 51% | 1008.2 hPa | 0 mm | 1.79 m/s, 335° | - | - |
| 1778038905 | 18.33° C | 51% | 1008 hPa | 0 mm | 3.58 m/s, 249° | - | - |
| 1778038650 | 18.33° C | 49% | 1008.2 hPa | 0 mm | 2.24 m/s, 204° | - | - |
| 1778038405 | 18.33° C | 50% | 1008.2 hPa | 0 mm | 1.79 m/s, 288° | - | - |
| 1778038130 | 18.33° C | 50% | 1008.1 hPa | 0 mm | 2.68 m/s, 232° | - | - |
| 1778037880 | 18.33° C | 50% | 1008.5 hPa | 0 mm | 4.47 m/s, 198° | - | - |
| 1778037605 | 18.33° C | 51% | 1008.2 hPa | 0 mm | 3.13 m/s, 299° | - | - |
| 1778037355 | 18.33° C | 50% | 1008.1 hPa | 0 mm | 4.02 m/s, 292° | - | - |
| 1778037090 | 18.33° C | 50% | 1008.1 hPa | 0 mm | 4.02 m/s, 304° | - | - |
* Rain latest hour (hover to see other rain measurements)
** Current wind speed in m/s (hover to see current wind gust speed)